Fort Lewis, WA

5:39 AM PDT on October 24, 2017 (GMT -0700)
Gray Army Air Field

Weather History for KGRF - June, 2013

Change the Weather History Date:

Tuesday, June 25, 2013

  Actual Average Record
Temperature  
Mean Temperature 64 °F -  
Max Temperature 73 °F 70 °F 96 °F (2017)
Min Temperature 56 °F 49 °F 44 °F (2003)
Degree Days  
Heating Degree Days 2    
Growing Degree Days 14 (Base 50)    
Moisture  
Dew Point 57 °F    
Average Humidity 88    
Maximum Humidity 100    
Minimum Humidity 52    
Precipitation  
Precipitation 0.25 in - - ()
Sea Level Pressure  
Sea Level Pressure 29.74 in    
Wind  
Wind Speed 5 mph (SE)    
Max Wind Speed 16 mph    
Max Gust Speed 31 mph    
Visibility 9 miles    
Events Rain , Thunderstorm    
Averages and records for this station are not official NWS values.
T = Trace of Precipitation, MM = Missing Value Source: NWS Daily Summary

Daily Weather History Graph

Daily Weather History Graph

Search for Another Location

Airport or City:

Trip Planner

Search our weather history database for the weather conditions in past years. The results will help you decide how hot, cold, wet, or windy it might be!

Date:

Astronomy

Jun. 25, 2013 Rise Set
Actual Time 5:16 AM PDT 9:09 PM PDT
Civil Twilight 4:36 AM PDT 9:49 PM PDT
Nautical Twilight 3:41 AM PDT 10:44 PM PDT
Astronomical Twilight 2:18 AM PDT 12:06 AM PDT
Moon 10:44 PM PDT (6/25) 8:14 AM PDT (6/25)
Length of Visible Light 17h 13m
Length of Day
15h 53m
Waning Gibbous, 92% of the Moon is Illuminated
Jun 25
Waning Gibbous
Jun 29
Last Quarter
Jul 8
New
Jul 15
First Quarter
Jul 22
Full

Hourly Weather History & Observations

Time (PDT) Temp. Dew Point Humidity Pressure Visibility Wind Dir Wind Speed Gust Speed Precip Events Conditions
12:58 AM 58.5 °F 57.0 °F 95% 29.70 in 10.0 mi ESE 2.3 mph - N/A   Overcast
1:20 AM 59.0 °F 57.2 °F 94% 29.69 in 10.0 mi ENE 2.3 mph - N/A   Light Drizzle
1:35 AM 59.0 °F 57.2 °F 94% 29.69 in 9.0 mi ENE 1.2 mph - N/A   Light Drizzle
1:40 AM 57.2 °F 57.2 °F 100% 29.69 in 9.0 mi SSE 2.3 mph - N/A   Light Drizzle
1:45 AM 57.2 °F 57.2 °F 100% 29.69 in 10.0 mi SE 2.3 mph - N/A   Mostly Cloudy
1:50 AM 57.2 °F 57.2 °F 100% 29.69 in 10.0 mi SE 3.5 mph - N/A   Light Drizzle
1:55 AM 57.2 °F 57.2 °F 100% 29.69 in 9.0 mi SE 3.5 mph - N/A Rain Light Rain
1:58 AM 57.6 °F 56.5 °F 96% 29.70 in 8.0 mi SE 3.5 mph - 0.02 in Rain Light Rain
2:08 AM 57.2 °F 57.2 °F 100% 29.69 in 10.0 mi SE 2.3 mph - N/A   Light Drizzle
2:09 AM 57.2 °F 57.2 °F 100% 29.69 in 10.0 mi SE 2.3 mph - N/A   Overcast
2:19 AM 57.2 °F 57.2 °F 100% 29.68 in 10.0 mi ESE 1.2 mph - N/A   Light Drizzle
2:44 AM 57.2 °F 57.2 °F 100% 29.69 in 6.0 mi SE 3.5 mph - N/A   Drizzle
2:52 AM 57.2 °F 57.2 °F 100% 29.69 in 5.0 mi ESE 4.6 mph - N/A Rain Light Rain
2:58 AM 57.4 °F 57.0 °F 99% 29.70 in 4.0 mi East 4.6 mph - 0.06 in Rain Light Rain
3:03 AM 57.2 °F 57.2 °F 100% 29.69 in 6.0 mi ENE 3.5 mph - N/A Rain Light Rain
3:06 AM 57.2 °F 57.2 °F 100% 29.69 in 10.0 mi NE 3.5 mph - N/A   Overcast
3:58 AM 57.0 °F 55.9 °F 96% 29.70 in 10.0 mi NE 1.2 mph - 0.01 in   Overcast
4:58 AM 56.7 °F 56.1 °F 98% 29.69 in 10.0 mi NE 2.3 mph - N/A   Mostly Cloudy
5:45 AM 57.2 °F 55.4 °F 94% 29.68 in 10.0 mi South 3.5 mph - N/A   Light Drizzle
5:54 AM 57.2 °F 57.2 °F 100% 29.68 in 10.0 mi SE 3.5 mph - N/A   Overcast
5:58 AM 56.7 °F 56.3 °F 99% 29.70 in 10.0 mi SE 4.6 mph - 0.00 in   Overcast
5:59 AM 57.2 °F 57.2 °F 100% 29.69 in 6.0 mi SE 4.6 mph - N/A   Overcast
6:00 AM 57.2 °F 57.2 °F 100% 29.69 in 4.0 mi SE 3.5 mph - N/A Rain Light Rain
6:05 AM 57.2 °F 55.4 °F 94% 29.69 in 1.8 mi SSW 4.6 mph - N/A Rain Rain
6:10 AM 57.2 °F 57.2 °F 100% 29.69 in 1.2 mi Variable 4.6 mph - N/A Rain Light Rain
6:15 AM 57.2 °F 57.2 °F 100% 29.70 in 1.8 mi SSE 6.9 mph - N/A Rain Rain
6:20 AM 57.2 °F 57.2 °F 100% 29.69 in 4.0 mi SE 5.8 mph - N/A Rain Light Rain
6:52 AM 57.2 °F 57.2 °F 100% 29.69 in 10.0 mi ENE 2.3 mph - N/A   Mostly Cloudy
6:58 AM 57.0 °F 56.5 °F 98% 29.70 in 10.0 mi East 2.3 mph - 0.11 in   Mostly Cloudy
7:58 AM 58.6 °F 57.6 °F 96% 29.72 in 10.0 mi South 3.5 mph - N/A   Mostly Cloudy
8:58 AM 61.2 °F 57.2 °F 87% 29.74 in 10.0 mi SSW 9.2 mph - N/A   Mostly Cloudy
9:58 AM 62.6 °F 56.8 °F 81% 29.74 in 10.0 mi South 9.2 mph - N/A   Mostly Cloudy
10:58 AM 65.7 °F 55.2 °F 69% 29.74 in 10.0 mi Variable 5.8 mph - N/A   Mostly Cloudy
11:58 AM 65.7 °F 54.9 °F 68% 29.75 in 10.0 mi South 5.8 mph - N/A   Overcast
12:58 PM 68.5 °F 53.1 °F 58% 29.75 in 10.0 mi South 10.4 mph 18.4 mph N/A   Mostly Cloudy
1:03 PM 68.0 °F 53.6 °F 60% 29.74 in 10.0 mi SSE 12.7 mph - N/A   Light Drizzle
1:12 PM 66.2 °F 55.4 °F 68% 29.74 in 10.0 mi ESE 8.1 mph - N/A   Mostly Cloudy
1:58 PM 69.6 °F 54.5 °F 59% 29.75 in 10.0 mi South 9.2 mph - 0.00 in   Overcast
2:58 PM 70.9 °F 52.7 °F 53% 29.74 in 10.0 mi South 10.4 mph - N/A   Scattered Clouds
3:58 PM 71.1 °F 52.7 °F 52% 29.74 in 10.0 mi SSE 8.1 mph - N/A   Mostly Cloudy
4:04 PM 69.8 °F 51.8 °F 53% 29.73 in 10.0 mi SSE 16.1 mph 25.3 mph N/A Rain Light Rain
4:13 PM 66.2 °F 59.0 °F 78% 29.75 in 7.0 mi South 15.0 mph 31.1 mph N/A Rain , Thunderstorm Light Thunderstorms and Rain
4:18 PM 62.6 °F 59.0 °F 88% 29.75 in 6.0 mi South 15.0 mph 31.1 mph N/A Thunderstorm Unknown
4:21 PM 62.6 °F 59.0 °F 88% 29.75 in 7.0 mi South 13.8 mph - N/A Rain , Thunderstorm Light Thunderstorms and Rain
4:28 PM 60.8 °F 57.2 °F 88% 29.76 in 9.0 mi SSE 10.4 mph - N/A Rain Light Rain
4:38 PM 60.8 °F 59.0 °F 94% 29.76 in 10.0 mi ESE 6.9 mph - N/A   Overcast
4:58 PM 63.1 °F 60.1 °F 90% 29.77 in 10.0 mi ESE 4.6 mph - 0.04 in   Mostly Cloudy
5:58 PM 63.9 °F 59.4 °F 85% 29.78 in 10.0 mi SE 5.8 mph - N/A   Mostly Cloudy
6:18 PM 64.4 °F 59.0 °F 83% 29.77 in 10.0 mi SSE 4.6 mph - N/A Rain Light Rain
6:32 PM 64.4 °F 59.0 °F 83% 29.77 in 10.0 mi South 5.8 mph - N/A   Mostly Cloudy
6:58 PM 66.4 °F 58.5 °F 76% 29.79 in 10.0 mi SSE 10.4 mph - 0.00 in   Mostly Cloudy
7:58 PM 64.6 °F 55.9 °F 74% 29.82 in 10.0 mi SSE 12.7 mph - N/A   Mostly Cloudy
8:10 PM 62.6 °F 55.4 °F 77% 29.82 in 10.0 mi SE 9.2 mph - N/A   Light Drizzle
8:28 PM 60.8 °F 57.2 °F 88% 29.82 in 10.0 mi SSE 10.4 mph - N/A   Overcast
8:53 PM 60.8 °F 55.4 °F 82% 29.83 in 10.0 mi South 4.6 mph - N/A   Overcast
8:58 PM 60.4 °F 56.1 °F 86% 29.84 in 10.0 mi South 5.8 mph - 0.01 in   Overcast
9:03 PM 60.8 °F 55.4 °F 82% 29.83 in 10.0 mi South 4.6 mph - N/A   Overcast
9:58 PM 59.0 °F 54.9 °F 86% 29.86 in 10.0 mi SE 3.5 mph - N/A   Overcast
10:58 PM 58.8 °F 55.4 °F 88% 29.87 in 10.0 mi NE 3.5 mph - N/A   Overcast
11:58 PM 57.9 °F 55.4 °F 91% 29.87 in 10.0 mi NE 1.2 mph - N/A   Mostly Cloudy